Regional Weather Roundup
Issued by NWS Charleston, WV

Home | Current Version | Previous Version | Graphics & Text | Print | Product List | Glossary On
Versions: 1 2 3 4 5 6 7 8 9 10 11 12 13 14 15 16 17 18 19 20 21 22 23 24 25 26 27 28 29 30 31 32 33 34 35 36 37 38 39 40 41 42 43 44 45 46 47 48 49 50
000
ASUS41 KRLX 251110
RWRRLX
West Virginia Regional Weather Roundup
National Weather Service Charleston WV
700 AM EDT SAT APR 25 2015

Note: "fair" indicates few or no clouds below 12,000 feet with no
significant weather and/or obstructions to visibility.

WVZ003-251200-
Northern Panhandle of West Virginia

CITY           SKY/WX    TMP DP  RH WIND       PRES   REMARKS
WHEELING       CLOUDY    40  20  44 E12       29.95R
$$

WVZ009-251200-
Northwest West Virginia

CITY           SKY/WX    TMP DP  RH WIND       PRES   REMARKS
PARKERSBURG    CLOUDY    46  25  43 E7        29.93F
$$

WVZ006-251200-
Western West Virginia

CITY           SKY/WX    TMP DP  RH WIND       PRES   REMARKS
HUNTINGTON     CLOUDY    44  42  93 NE3       29.86F
$$

WVZ015-251200-
West Central West Virginia

CITY           SKY/WX    TMP DP  RH WIND       PRES   REMARKS
CHARLESTON     LGT RAIN  43  40  89 CALM      29.86F
$$

WVZ022-031-251200-
North Central West Virginia

CITY           SKY/WX    TMP DP  RH WIND       PRES   REMARKS
CLARKSBURG     CLOUDY    41  28  60 NE6       29.92F
MORGANTOWN     CLOUDY    41  22  46 N6        29.95S
$$

WVZ025-035-042-045-251200-
Southern West Virginia

CITY           SKY/WX    TMP DP  RH WIND       PRES   REMARKS
BECKLEY        LGT RAIN  44  37  76 S6        29.89F
LOGAN          CLOUDY    45  41  87 CALM      29.83F
BLUEFIELD      CLOUDY    43  34  70 E3        29.91R
LEWISBURG      LGT RAIN  42  32  68 N3        29.91S
$$

WVZ047-251200-
Northern Mountains of West Virginia

CITY           SKY/WX    TMP DP  RH WIND       PRES   REMARKS
ELKINS         CLOUDY    38  31  76 CALM      29.92S
$$

WVZ052-251200-
Eastern Panhandle of West Virginia

CITY           SKY/WX    TMP DP  RH WIND       PRES   REMARKS
MARTINSBURG    CLOUDY    43  19  38 N3        29.98R
PETERSBURG     CLOUDY    37  31  78 CALM      29.98R
$$


USA.gov is the U.S. government's official web portal to all federal, state and local government web resources and services.